Time,TemperatureF,DewpointF,PressureIn,WindDirection,WindDirectionDegrees,WindSpeedMPH,WindSpeedGustMPH,Humidity,HourlyPrecipIn,Conditions,Clouds,dailyrainin,SoftwareType,DateUTC
2013-04-27 00:00:00,48.4,34.8,30.39,ESE,112,0.0,0.0,59,0.00,,,0.00,WUHU21623XXSP,2013-04-27 04:00:00,
2013-04-27 00:01:00,48.4,34.8,30.39,ESE,112,0.0,0.0,59,0.00,,,0.00,WUHU21623XXSP,2013-04-27 04:01:00,
2013-04-27 00:06:00,48.3,34.7,30.39,ESE,112,0.0,0.0,59,0.00,,,0.00,WUHU21623XXSP,2013-04-27 04:06:00,
2013-04-27 00:11:00,48.1,34.5,30.39,ESE,112,0.0,0.0,59,0.00,,,0.00,WUHU21623XXSP,2013-04-27 04:11:00,
2013-04-27 00:16:00,48.1,35.0,30.40,ESE,112,0.0,0.0,60,0.00,,,0.00,WUHU21623XXSP,2013-04-27 04:16:00,
2013-04-27 00:21:00,47.7,34.6,30.40,ESE,112,0.0,0.0,60,0.00,,,0.00,WUHU21623XXSP,2013-04-27 04:21:00,
2013-04-27 00:26:00,47.7,34.6,30.40,ESE,112,0.0,0.0,60,0.00,,,0.00,WUHU21623XXSP,2013-04-27 04:26:00,
2013-04-27 00:31:00,47.7,34.6,30.40,ESE,112,0.0,0.0,60,0.00,,,0.00,WUHU21623XXSP,2013-04-27 04:31:00,
2013-04-27 00:36:00,47.5,34.4,30.39,ESE,112,0.0,0.0,60,0.00,,,0.00,WUHU21623XXSP,2013-04-27 04:36:00,
2013-04-27 00:41:00,47.5,34.8,30.40,ESE,112,0.0,0.0,61,0.00,,,0.00,WUHU21623XXSP,2013-04-27 04:41:00,
2013-04-27 00:46:00,47.5,34.8,30.40,ESE,112,0.0,0.0,61,0.00,,,0.00,WUHU21623XXSP,2013-04-27 04:46:00,
2013-04-27 00:53:00,47.2,34.5,30.40,ESE,112,0.0,0.0,61,0.00,,,0.00,WUHU21623XXSP,2013-04-27 04:53:00,
2013-04-27 00:58:00,47.2,34.5,30.40,ESE,112,0.0,0.0,61,0.00,,,0.00,WUHU21623XXSP,2013-04-27 04:58:00,
2013-04-27 01:03:00,47.2,34.9,30.39,ESE,112,0.0,0.0,62,0.00,,,0.00,WUHU21623XXSP,2013-04-27 05:03:00,
2013-04-27 01:08:00,47.2,34.9,30.39,ESE,112,0.0,0.0,62,0.00,,,0.00,WUHU21623XXSP,2013-04-27 05:08:00,
2013-04-27 01:13:00,47.0,34.7,30.39,ESE,112,0.0,0.0,62,0.00,,,0.00,WUHU21623XXSP,2013-04-27 05:13:00,
2013-04-27 01:18:00,47.0,34.7,30.40,ESE,112,0.0,0.0,62,0.00,,,0.00,WUHU21623XXSP,2013-04-27 05:18:00,
2013-04-27 01:23:00,47.0,34.7,30.39,ESE,112,0.0,0.0,62,0.00,,,0.00,WUHU21623XXSP,2013-04-27 05:23:00,
2013-04-27 01:28:00,46.8,35.0,30.39,ESE,112,0.0,0.0,63,0.00,,,0.00,WUHU21623XXSP,2013-04-27 05:28:00,
2013-04-27 01:33:00,46.8,35.0,30.39,ESE,112,0.0,0.0,63,0.00,,,0.00,WUHU21623XXSP,2013-04-27 05:33:00,
2013-04-27 01:38:00,46.6,34.8,30.39,ESE,112,0.0,0.0,63,0.00,,,0.00,WUHU21623XXSP,2013-04-27 05:38:00,
2013-04-27 01:43:00,46.6,34.8,30.39,ESE,112,0.0,0.0,63,0.00,,,0.00,WUHU21623XXSP,2013-04-27 05:43:00,
2013-04-27 01:48:00,46.6,35.2,30.39,ESE,112,0.0,0.0,64,0.00,,,0.00,WUHU21623XXSP,2013-04-27 05:48:00,
2013-04-27 01:53:00,46.6,35.2,30.38,ESE,112,0.0,0.0,64,0.00,,,0.00,WUHU21623XXSP,2013-04-27 05:53:00,
2013-04-27 01:58:00,46.6,35.2,30.38,ESE,112,0.0,0.0,64,0.00,,,0.00,WUHU21623XXSP,2013-04-27 05:58:00,
2013-04-27 02:03:00,46.6,35.2,30.38,ESE,112,0.0,0.0,64,0.00,,,0.00,WUHU21623XXSP,2013-04-27 06:03:00,
2013-04-27 02:08:00,46.6,35.2,30.38,ESE,112,0.0,0.0,64,0.00,,,0.00,WUHU21623XXSP,2013-04-27 06:08:00,
2013-04-27 02:13:00,46.5,35.1,30.38,ESE,112,0.0,0.0,64,0.00,,,0.00,WUHU21623XXSP,2013-04-27 06:13:00,
2013-04-27 02:18:00,46.5,35.1,30.38,ESE,112,0.0,0.0,64,0.00,,,0.00,WUHU21623XXSP,2013-04-27 06:18:00,
2013-04-27 02:23:00,46.3,34.9,30.38,ESE,112,0.0,0.0,64,0.00,,,0.00,WUHU21623XXSP,2013-04-27 06:23:00,
2013-04-27 02:28:00,46.3,34.9,30.38,ESE,112,0.0,0.0,64,0.00,,,0.00,WUHU21623XXSP,2013-04-27 06:28:00,
2013-04-27 02:33:00,46.3,34.9,30.39,ESE,112,0.0,0.0,64,0.00,,,0.00,WUHU21623XXSP,2013-04-27 06:33:00,
2013-04-27 02:38:00,46.1,34.7,30.38,ESE,112,0.0,0.0,64,0.00,,,0.00,WUHU21623XXSP,2013-04-27 06:38:00,
2013-04-27 02:43:00,46.1,35.1,30.38,ESE,112,0.0,0.0,65,0.00,,,0.00,WUHU21623XXSP,2013-04-27 06:43:00,
2013-04-27 02:48:00,45.9,34.9,30.39,ESE,112,0.0,0.0,65,0.00,,,0.00,WUHU21623XXSP,2013-04-27 06:48:00,
2013-04-27 02:53:00,45.9,34.9,30.39,ESE,112,0.0,0.0,65,0.00,,,0.00,WUHU21623XXSP,2013-04-27 06:53:00,
2013-04-27 02:58:00,45.9,34.9,30.38,ESE,112,0.0,0.0,65,0.00,,,0.00,WUHU21623XXSP,2013-04-27 06:58:00,
2013-04-27 03:03:00,45.9,34.9,30.38,ESE,112,0.0,0.0,65,0.00,,,0.00,WUHU21623XXSP,2013-04-27 07:03:00,
2013-04-27 03:08:00,45.9,35.3,30.38,ESE,112,0.0,0.0,66,0.00,,,0.00,WUHU21623XXSP,2013-04-27 07:08:00,
2013-04-27 03:13:00,45.9,35.3,30.38,ESE,112,0.0,0.0,66,0.00,,,0.00,WUHU21623XXSP,2013-04-27 07:13:00,
2013-04-27 03:18:00,45.9,35.3,30.38,ESE,112,0.0,0.0,66,0.00,,,0.00,WUHU21623XXSP,2013-04-27 07:18:00,
2013-04-27 03:23:00,45.7,35.1,30.38,ESE,112,0.0,0.0,66,0.00,,,0.00,WUHU21623XXSP,2013-04-27 07:23:00,
2013-04-27 03:28:00,45.7,35.1,30.38,ESE,112,0.0,0.0,66,0.00,,,0.00,WUHU21623XXSP,2013-04-27 07:28:00,
2013-04-27 03:33:00,45.7,35.1,30.38,ESE,112,0.0,0.0,66,0.00,,,0.00,WUHU21623XXSP,2013-04-27 07:33:00,
2013-04-27 03:38:00,45.6,35.0,30.38,ESE,112,0.0,0.0,66,0.00,,,0.00,WUHU21623XXSP,2013-04-27 07:38:00,
2013-04-27 03:43:00,45.4,34.8,30.38,ESE,112,0.0,0.0,66,0.00,,,0.00,WUHU21623XXSP,2013-04-27 07:43:00,
2013-04-27 03:48:00,45.4,34.8,30.38,ESE,112,0.0,0.0,66,0.00,,,0.00,WUHU21623XXSP,2013-04-27 07:48:00,
2013-04-27 03:53:00,45.4,34.8,30.38,ESE,112,0.0,0.0,66,0.00,,,0.00,WUHU21623XXSP,2013-04-27 07:53:00,
2013-04-27 03:58:00,45.2,34.6,30.38,ESE,112,0.0,0.0,66,0.00,,,0.00,WUHU21623XXSP,2013-04-27 07:58:00,
2013-04-27 04:03:00,45.2,34.6,30.38,ESE,112,0.0,0.0,66,0.00,,,0.00,WUHU21623XXSP,2013-04-27 08:03:00,
2013-04-27 04:08:00,45.0,34.4,30.38,ESE,112,0.0,0.0,66,0.00,,,0.00,WUHU21623XXSP,2013-04-27 08:08:00,
2013-04-27 04:13:00,45.0,34.8,30.38,ESE,112,0.0,0.0,67,0.00,,,0.00,WUHU21623XXSP,2013-04-27 08:13:00,
2013-04-27 04:18:00,45.0,34.8,30.38,ESE,112,0.0,0.0,67,0.00,,,0.00,WUHU21623XXSP,2013-04-27 08:18:00,
2013-04-27 04:23:00,44.8,34.6,30.38,ESE,112,0.0,0.0,67,0.00,,,0.00,WUHU21623XXSP,2013-04-27 08:23:00,
2013-04-27 04:28:00,44.8,34.6,30.37,ESE,112,0.0,0.0,67,0.00,,,0.00,WUHU21623XXSP,2013-04-27 08:28:00,
2013-04-27 04:33:00,44.7,34.5,30.38,ESE,112,0.0,0.0,67,0.00,,,0.00,WUHU21623XXSP,2013-04-27 08:33:00,
2013-04-27 04:38:00,44.7,34.5,30.37,ESE,112,0.0,0.0,67,0.00,,,0.00,WUHU21623XXSP,2013-04-27 08:38:00,
2013-04-27 04:43:00,44.5,34.3,30.37,ESE,112,0.0,0.0,67,0.00,,,0.00,WUHU21623XXSP,2013-04-27 08:43:00,
2013-04-27 04:48:00,44.5,34.3,30.37,ESE,112,0.0,0.0,67,0.00,,,0.00,WUHU21623XXSP,2013-04-27 08:48:00,
2013-04-27 04:53:00,44.5,34.3,30.37,ESE,112,0.0,0.0,67,0.00,,,0.00,WUHU21623XXSP,2013-04-27 08:53:00,
2013-04-27 04:58:00,44.1,34.3,30.38,ESE,112,0.0,0.0,68,0.00,,,0.00,WUHU21623XXSP,2013-04-27 08:58:00,
2013-04-27 05:03:00,44.1,34.3,30.37,ESE,112,0.0,0.0,68,0.00,,,0.00,WUHU21623XXSP,2013-04-27 09:03:00,
2013-04-27 05:08:00,44.1,34.3,30.37,ESE,112,0.0,0.0,68,0.00,,,0.00,WUHU21623XXSP,2013-04-27 09:08:00,
2013-04-27 05:13:00,44.1,34.3,30.37,ESE,112,0.0,0.0,68,0.00,,,0.00,WUHU21623XXSP,2013-04-27 09:13:00,
2013-04-27 05:18:00,43.9,34.1,30.37,ESE,112,0.0,0.0,68,0.00,,,0.00,WUHU21623XXSP,2013-04-27 09:18:00,
2013-04-27 05:23:00,43.9,34.1,30.38,ESE,112,0.0,0.0,68,0.00,,,0.00,WUHU21623XXSP,2013-04-27 09:23:00,
2013-04-27 05:28:00,43.9,34.1,30.38,ESE,112,0.0,0.0,68,0.00,,,0.00,WUHU21623XXSP,2013-04-27 09:28:00,
2013-04-27 05:33:00,43.8,34.0,30.38,SE,135,0.0,0.0,68,0.00,,,0.00,WUHU21623XXSP,2013-04-27 09:33:00,
2013-04-27 05:38:00,43.6,33.8,30.38,North,0,0.0,0.0,68,0.00,,,0.00,WUHU21623XXSP,2013-04-27 09:38:00,
2013-04-27 05:43:00,43.6,33.8,30.38,North,0,0.0,0.0,68,0.00,,,0.00,WUHU21623XXSP,2013-04-27 09:43:00,
2013-04-27 05:48:00,43.6,33.8,30.38,North,0,0.0,0.0,68,0.00,,,0.00,WUHU21623XXSP,2013-04-27 09:48:00,
2013-04-27 05:53:00,43.4,33.6,30.38,North,0,0.0,0.0,68,0.00,,,0.00,WUHU21623XXSP,2013-04-27 09:53:00,
2013-04-27 05:58:00,43.4,33.6,30.38,North,0,0.0,0.0,68,0.00,,,0.00,WUHU21623XXSP,2013-04-27 09:58:00,
2013-04-27 06:03:00,43.2,33.4,30.39,North,0,0.0,0.0,68,0.00,,,0.00,WUHU21623XXSP,2013-04-27 10:03:00,
2013-04-27 06:08:00,43.0,33.2,30.38,North,0,0.0,0.0,68,0.00,,,0.00,WUHU21623XXSP,2013-04-27 10:08:00,
2013-04-27 06:13:00,43.0,33.2,30.38,North,0,0.0,0.0,68,0.00,,,0.00,WUHU21623XXSP,2013-04-27 10:13:00,
2013-04-27 06:18:00,43.0,33.6,30.38,North,0,0.0,0.0,69,0.00,,,0.00,WUHU21623XXSP,2013-04-27 10:18:00,
2013-04-27 06:23:00,42.9,33.5,30.38,North,0,0.0,0.0,69,0.00,,,0.00,WUHU21623XXSP,2013-04-27 10:23:00,
2013-04-27 06:28:00,42.9,33.5,30.39,North,0,0.0,0.0,69,0.00,,,0.00,WUHU21623XXSP,2013-04-27 10:28:00,
2013-04-27 06:33:00,42.9,33.5,30.39,North,0,0.0,0.0,69,0.00,,,0.00,WUHU21623XXSP,2013-04-27 10:33:00,
2013-04-27 06:38:00,42.9,33.5,30.39,North,0,0.0,0.0,69,0.00,,,0.00,WUHU21623XXSP,2013-04-27 10:38:00,
2013-04-27 06:43:00,42.9,33.5,30.39,North,0,0.0,0.0,69,0.00,,,0.00,WUHU21623XXSP,2013-04-27 10:43:00,
2013-04-27 06:48:00,42.9,33.5,30.39,North,0,0.0,0.0,69,0.00,,,0.00,WUHU21623XXSP,2013-04-27 10:48:00,
2013-04-27 06:53:00,42.9,33.5,30.39,WSW,247,0.0,0.0,69,0.00,,,0.00,WUHU21623XXSP,2013-04-27 10:53:00,
2013-04-27 06:58:00,42.9,33.5,30.40,WSW,247,0.0,0.0,69,0.00,,,0.00,WUHU21623XXSP,2013-04-27 10:58:00,
2013-04-27 07:03:00,43.0,33.6,30.40,WSW,247,0.0,0.0,69,0.00,,,0.00,WUHU21623XXSP,2013-04-27 11:03:00,
2013-04-27 07:08:00,43.0,33.6,30.39,WSW,247,0.0,0.0,69,0.00,,,0.00,WUHU21623XXSP,2013-04-27 11:08:00,
2013-04-27 07:13:00,43.2,33.8,30.40,WSW,247,0.0,0.0,69,0.00,,,0.00,WUHU21623XXSP,2013-04-27 11:13:00,
2013-04-27 07:18:00,43.2,33.8,30.40,WSW,247,0.0,0.0,69,0.00,,,0.00,WUHU21623XXSP,2013-04-27 11:18:00,
2013-04-27 07:23:00,43.6,34.2,30.40,WSW,247,0.0,0.0,69,0.00,,,0.00,WUHU21623XXSP,2013-04-27 11:23:00,
2013-04-27 07:28:00,43.8,34.4,30.40,WSW,247,0.0,0.0,69,0.00,,,0.00,WUHU21623XXSP,2013-04-27 11:28:00,
2013-04-27 07:33:00,44.1,34.7,30.40,WSW,247,0.0,0.0,69,0.00,,,0.00,WUHU21623XXSP,2013-04-27 11:33:00,
2013-04-27 07:38:00,44.5,35.1,30.41,WSW,247,0.0,0.0,69,0.00,,,0.00,WUHU21623XXSP,2013-04-27 11:38:00,
2013-04-27 07:43:00,44.8,35.3,30.40,WSW,247,0.0,0.0,69,0.00,,,0.00,WUHU21623XXSP,2013-04-27 11:43:00,
2013-04-27 07:48:00,45.4,36.3,30.41,WSW,247,0.0,0.0,70,0.00,,,0.00,WUHU21623XXSP,2013-04-27 11:48:00,
2013-04-27 07:53:00,45.9,36.8,30.41,WSW,247,0.0,0.0,70,0.00,,,0.00,WUHU21623XXSP,2013-04-27 11:53:00,
2013-04-27 07:58:00,46.5,37.3,30.41,WSW,247,0.0,0.0,70,0.00,,,0.00,WUHU21623XXSP,2013-04-27 11:58:00,
2013-04-27 08:03:00,47.0,37.8,30.41,WSW,247,0.0,0.0,70,0.00,,,0.00,WUHU21623XXSP,2013-04-27 12:03:00,
2013-04-27 08:08:00,47.5,38.3,30.41,ESE,112,0.0,0.0,70,0.00,,,0.00,WUHU21623XXSP,2013-04-27 12:08:00,
2013-04-27 08:13:00,48.1,38.9,30.41,ESE,112,0.0,0.0,70,0.00,,,0.00,WUHU21623XXSP,2013-04-27 12:13:00,
2013-04-27 08:18:00,48.6,39.4,30.41,NNW,337,1.3,1.3,70,0.00,,,0.00,WUHU21623XXSP,2013-04-27 12:18:00,
2013-04-27 08:23:00,49.5,40.2,30.41,East,100,2.1,5.1,70,0.00,,,0.00,WUHU21623XXSP,2013-04-27 12:23:00,
2013-04-27 08:28:00,50.1,40.8,30.41,ENE,67,1.3,7.8,70,0.00,,,0.00,WUHU21623XXSP,2013-04-27 12:28:00,
2013-04-27 08:33:00,50.8,41.5,30.41,ESE,112,0.0,7.8,70,0.00,,,0.00,WUHU21623XXSP,2013-04-27 12:33:00,
2013-04-27 08:38:00,51.3,42.0,30.41,ENE,58,2.8,7.2,70,0.00,,,0.00,WUHU21623XXSP,2013-04-27 12:38:00,
2013-04-27 08:43:00,52.0,42.3,30.41,ESE,112,0.0,7.2,69,0.00,,,0.00,WUHU21623XXSP,2013-04-27 12:43:00,
2013-04-27 08:48:00,52.6,42.8,30.41,ESE,108,2.3,2.9,69,0.00,,,0.00,WUHU21623XXSP,2013-04-27 12:48:00,
2013-04-27 08:53:00,53.5,43.7,30.42,ESE,112,4.0,6.0,69,0.00,,,0.00,WUHU21623XXSP,2013-04-27 12:53:00,
2013-04-27 08:58:00,53.8,43.6,30.41,SE,141,5.4,6.0,68,0.00,,,0.00,WUHU21623XXSP,2013-04-27 12:58:00,
2013-04-27 09:03:00,54.4,44.2,30.41,ESE,106,3.4,6.7,68,0.00,,,0.00,WUHU21623XXSP,2013-04-27 13:03:00,
2013-04-27 09:08:00,54.9,44.3,30.41,ESE,113,4.2,6.9,67,0.00,,,0.00,WUHU21623XXSP,2013-04-27 13:08:00,
2013-04-27 09:13:00,55.5,44.5,30.41,SE,124,4.8,6.9,66,0.00,,,0.00,WUHU21623XXSP,2013-04-27 13:13:00,
2013-04-27 09:18:00,55.8,44.7,30.41,East,90,5.4,7.4,66,0.00,,,0.00,WUHU21623XXSP,2013-04-27 13:18:00,
2013-04-27 09:23:00,56.2,44.7,30.41,SSE,157,0.0,7.6,65,0.00,,,0.00,WUHU21623XXSP,2013-04-27 13:23:00,
2013-04-27 09:28:00,56.7,44.8,30.41,NE,55,4.3,7.6,64,0.00,,,0.00,WUHU21623XXSP,2013-04-27 13:28:00,
2013-04-27 09:33:00,56.7,44.8,30.41,NE,45,2.3,5.8,64,0.00,,,0.00,WUHU21623XXSP,2013-04-27 13:33:00,
2013-04-27 09:38:00,57.3,44.9,30.41,ENE,72,2.6,6.0,63,0.00,,,0.00,WUHU21623XXSP,2013-04-27 13:38:00,
2013-04-27 09:43:00,57.6,44.8,30.41,ESE,112,0.9,6.0,62,0.00,,,0.00,WUHU21623XXSP,2013-04-27 13:43:00,
2013-04-27 09:48:00,58.0,44.8,30.41,ESE,115,2.7,6.0,61,0.00,,,0.00,WUHU21623XXSP,2013-04-27 13:48:00,
2013-04-27 09:53:00,58.3,45.0,30.40,ENE,67,4.0,5.1,61,0.00,,,0.00,WUHU21623XXSP,2013-04-27 13:53:00,
2013-04-27 09:58:00,58.5,44.8,30.41,SSE,151,3.8,6.0,60,0.00,,,0.00,WUHU21623XXSP,2013-04-27 13:58:00,
2013-04-27 10:03:00,59.1,44.9,30.40,ENE,67,0.0,6.0,59,0.00,,,0.00,WUHU21623XXSP,2013-04-27 14:03:00,
2013-04-27 10:08:00,59.4,44.7,30.40,SE,135,0.0,2.0,58,0.00,,,0.00,WUHU21623XXSP,2013-04-27 14:08:00,
2013-04-27 10:13:00,59.8,45.1,30.40,NE,45,1.3,3.1,58,0.00,,,0.00,WUHU21623XXSP,2013-04-27 14:13:00,
2013-04-27 10:18:00,60.3,45.1,30.40,ESE,112,0.0,7.4,57,0.00,,,0.00,WUHU21623XXSP,2013-04-27 14:18:00,
2013-04-27 10:23:00,60.7,45.0,30.40,ESE,112,0.0,7.4,56,0.00,,,0.00,WUHU21623XXSP,2013-04-27 14:23:00,
2013-04-27 10:28:00,61.0,44.8,30.40,ESE,115,1.8,6.5,55,0.00,,,0.00,WUHU21623XXSP,2013-04-27 14:28:00,
2013-04-27 10:33:00,61.2,45.0,30.40,SSE,157,2.0,6.5,55,0.00,,,0.00,WUHU21623XXSP,2013-04-27 14:33:00,
2013-04-27 10:38:00,61.6,44.9,30.40,SE,131,2.3,7.4,54,0.00,,,0.00,WUHU21623XXSP,2013-04-27 14:38:00,
2013-04-27 10:43:00,61.9,45.1,30.40,ENE,67,0.0,7.4,54,0.00,,,0.00,WUHU21623XXSP,2013-04-27 14:43:00,
2013-04-27 10:48:00,62.1,44.8,30.40,SSE,157,0.0,4.9,53,0.00,,,0.00,WUHU21623XXSP,2013-04-27 14:48:00,
2013-04-27 10:53:00,62.5,44.7,30.41,SSE,157,0.0,3.6,52,0.00,,,0.00,WUHU21623XXSP,2013-04-27 14:53:00,
2013-04-27 10:58:00,62.8,45.0,30.41,SE,130,4.3,5.6,52,0.00,,,0.00,WUHU21623XXSP,2013-04-27 14:58:00,
2013-04-27 11:03:00,63.0,44.6,30.40,South,180,2.5,7.6,51,0.00,,,0.00,WUHU21623XXSP,2013-04-27 15:03:00,
2013-04-27 11:08:00,63.4,45.0,30.40,SE,135,4.9,8.9,51,0.00,,,0.00,WUHU21623XXSP,2013-04-27 15:08:00,
2013-04-27 11:13:00,63.7,44.7,30.41,SE,135,4.9,8.9,50,0.00,,,0.00,WUHU21623XXSP,2013-04-27 15:13:00,
2013-04-27 11:18:00,63.7,44.2,30.41,ESE,115,3.0,9.4,49,0.00,,,0.00,WUHU21623XXSP,2013-04-27 15:18:00,
2013-04-27 11:23:00,63.9,43.8,30.40,SSE,156,5.1,9.6,48,0.00,,,0.00,WUHU21623XXSP,2013-04-27 15:23:00,
2013-04-27 11:28:00,63.9,43.8,30.40,SSE,157,2.5,9.6,48,0.00,,,0.00,WUHU21623XXSP,2013-04-27 15:28:00,
2013-04-27 11:33:00,64.3,44.2,30.40,SE,146,3.2,7.2,48,0.00,,,0.00,WUHU21623XXSP,2013-04-27 15:33:00,
2013-04-27 11:38:00,64.5,43.8,30.40,SSE,152,5.5,7.6,47,0.00,,,0.00,WUHU21623XXSP,2013-04-27 15:38:00,
2013-04-27 11:43:00,64.5,43.8,30.40,ESE,112,7.6,7.8,47,0.00,,,0.00,WUHU21623XXSP,2013-04-27 15:43:00,
2013-04-27 11:48:00,64.6,43.3,30.40,ESE,112,2.5,7.8,46,0.00,,,0.00,WUHU21623XXSP,2013-04-27 15:48:00,
2013-04-27 11:53:00,64.8,43.5,30.40,ESE,112,3.1,7.6,46,0.00,,,0.00,WUHU21623XXSP,2013-04-27 15:53:00,
2013-04-27 11:58:00,65.0,43.1,30.40,SE,135,4.6,7.2,45,0.00,,,0.00,WUHU21623XXSP,2013-04-27 15:58:00,
2013-04-27 12:03:00,65.2,43.3,30.40,SSE,157,4.9,7.4,45,0.00,,,0.00,WUHU21623XXSP,2013-04-27 16:03:00,
2013-04-27 12:08:00,65.2,42.7,30.40,SE,124,1.6,7.4,44,0.00,,,0.00,WUHU21623XXSP,2013-04-27 16:08:00,
2013-04-27 12:13:00,65.2,42.7,30.39,SE,135,0.0,6.5,44,0.00,,,0.00,WUHU21623XXSP,2013-04-27 16:13:00,
2013-04-27 12:18:00,65.4,42.8,30.39,SSE,148,2.8,5.4,44,0.00,,,0.00,WUHU21623XXSP,2013-04-27 16:18:00,
2013-04-27 12:23:00,65.5,42.9,30.38,SSE,157,4.7,4.9,44,0.00,,,0.00,WUHU21623XXSP,2013-04-27 16:23:00,
2013-04-27 12:28:00,65.7,43.1,30.38,SE,135,0.0,7.6,44,0.00,,,0.00,WUHU21623XXSP,2013-04-27 16:28:00,
2013-04-27 12:33:00,66.1,42.9,30.38,ESE,112,0.0,7.6,43,0.00,,,0.00,WUHU21623XXSP,2013-04-27 16:33:00,
2013-04-27 12:38:00,66.1,42.9,30.38,SE,127,4.6,8.7,43,0.00,,,0.00,WUHU21623XXSP,2013-04-27 16:38:00,
2013-04-27 12:43:00,66.1,42.2,30.38,ESE,116,5.3,8.7,42,0.00,,,0.00,WUHU21623XXSP,2013-04-27 16:43:00,
2013-04-27 12:48:00,66.1,42.2,30.38,ESE,114,4.4,8.1,42,0.00,,,0.00,WUHU21623XXSP,2013-04-27 16:48:00,
2013-04-27 12:53:00,66.1,42.2,30.37,ESE,110,4.5,6.9,42,0.00,,,0.00,WUHU21623XXSP,2013-04-27 16:53:00,
2013-04-27 12:58:00,66.3,42.4,30.37,SE,141,3.7,9.2,42,0.00,,,0.00,WUHU21623XXSP,2013-04-27 16:58:00,
2013-04-27 13:03:00,66.4,42.5,30.38,SSE,157,0.9,9.6,42,0.00,,,0.00,WUHU21623XXSP,2013-04-27 17:03:00,
2013-04-27 13:08:00,66.4,42.5,30.37,SE,135,6.9,9.6,42,0.00,,,0.00,WUHU21623XXSP,2013-04-27 17:08:00,
2013-04-27 13:13:00,66.4,41.9,30.37,SE,133,5.2,9.4,41,0.00,,,0.00,WUHU21623XXSP,2013-04-27 17:13:00,
2013-04-27 13:18:00,66.6,42.0,30.37,SSE,157,0.0,9.4,41,0.00,,,0.00,WUHU21623XXSP,2013-04-27 17:18:00,
2013-04-27 13:23:00,66.6,42.0,30.37,South,179,4.9,9.2,41,0.00,,,0.00,WUHU21623XXSP,2013-04-27 17:23:00,
2013-04-27 13:28:00,66.8,41.6,30.36,SSE,157,5.4,9.2,40,0.00,,,0.00,WUHU21623XXSP,2013-04-27 17:28:00,
2013-04-27 13:33:00,67.0,41.7,30.36,SE,144,1.6,9.2,40,0.00,,,0.00,WUHU21623XXSP,2013-04-27 17:33:00,
2013-04-27 13:38:00,67.0,41.7,30.35,SE,141,5.8,8.3,40,0.00,,,0.00,WUHU21623XXSP,2013-04-27 17:38:00,
2013-04-27 13:43:00,67.0,41.7,30.35,SE,139,4.1,8.3,40,0.00,,,0.00,WUHU21623XXSP,2013-04-27 17:43:00,
2013-04-27 13:48:00,67.0,41.7,30.35,ESE,115,4.4,7.6,40,0.00,,,0.00,WUHU21623XXSP,2013-04-27 17:48:00,
2013-04-27 13:53:00,67.0,41.7,30.35,SE,135,3.9,9.6,40,0.00,,,0.00,WUHU21623XXSP,2013-04-27 17:53:00,
2013-04-27 13:58:00,67.0,41.7,30.35,SE,146,3.9,9.6,40,0.00,,,0.00,WUHU21623XXSP,2013-04-27 17:58:00,
2013-04-27 14:03:00,67.0,41.1,30.35,SSE,159,6.6,11.2,39,0.00,,,0.00,WUHU21623XXSP,2013-04-27 18:03:00,
2013-04-27 14:08:00,67.0,41.1,30.35,ESE,113,4.0,11.2,39,0.00,,,0.00,WUHU21623XXSP,2013-04-27 18:08:00,
2013-04-27 14:13:00,67.0,41.1,30.35,East,98,6.2,10.5,39,0.00,,,0.00,WUHU21623XXSP,2013-04-27 18:13:00,
2013-04-27 14:18:00,67.0,40.4,30.34,ESE,104,5.3,10.5,38,0.00,,,0.00,WUHU21623XXSP,2013-04-27 18:18:00,
2013-04-27 14:23:00,67.0,40.4,30.34,SE,135,5.6,8.5,38,0.00,,,0.00,WUHU21623XXSP,2013-04-27 18:23:00,
2013-04-27 14:28:00,67.0,40.4,30.34,ESE,112,6.5,9.2,38,0.00,,,0.00,WUHU21623XXSP,2013-04-27 18:28:00,
2013-04-27 14:33:00,67.0,40.4,30.34,SE,125,5.4,9.2,38,0.00,,,0.00,WUHU21623XXSP,2013-04-27 18:33:00,
2013-04-27 14:38:00,67.3,40.0,30.34,ESE,115,4.2,11.2,37,0.00,,,0.00,WUHU21623XXSP,2013-04-27 18:38:00,
2013-04-27 14:43:00,67.3,40.0,30.34,SSE,148,4.0,11.2,37,0.00,,,0.00,WUHU21623XXSP,2013-04-27 18:43:00,
2013-04-27 14:48:00,67.3,40.0,30.34,SE,146,3.3,7.6,37,0.00,,,0.00,WUHU21623XXSP,2013-04-27 18:48:00,
2013-04-27 14:53:00,67.5,40.1,30.34,SE,135,4.5,8.9,37,0.00,,,0.00,WUHU21623XXSP,2013-04-27 18:53:00,
2013-04-27 14:58:00,67.9,40.5,30.34,SSE,162,3.4,8.9,37,0.00,,,0.00,WUHU21623XXSP,2013-04-27 18:58:00,
2013-04-27 15:03:00,68.2,40.0,30.34,SE,142,3.9,8.9,36,0.00,,,0.00,WUHU21623XXSP,2013-04-27 19:03:00,
2013-04-27 15:08:00,68.8,40.6,30.34,South,169,1.8,8.9,36,0.00,,,0.00,WUHU21623XXSP,2013-04-27 19:08:00,
2013-04-27 15:13:00,69.3,41.0,30.33,SSE,157,2.3,7.4,36,0.00,,,0.00,WUHU21623XXSP,2013-04-27 19:13:00,
2013-04-27 15:18:00,70.2,41.1,30.33,South,172,5.3,6.7,35,0.00,,,0.00,WUHU21623XXSP,2013-04-27 19:18:00,
2013-04-27 15:23:00,71.1,41.9,30.33,ESE,112,0.0,6.7,35,0.00,,,0.00,WUHU21623XXSP,2013-04-27 19:23:00,
2013-04-27 15:28:00,72.4,42.3,30.33,SE,128,4.0,7.6,34,0.00,,,0.00,WUHU21623XXSP,2013-04-27 19:28:00,
2013-04-27 15:33:00,73.5,43.2,30.33,ESE,111,5.0,7.6,34,0.00,,,0.00,WUHU21623XXSP,2013-04-27 19:33:00,
2013-04-27 15:38:00,74.5,43.3,30.33,ESE,112,0.0,6.9,33,0.00,,,0.00,WUHU21623XXSP,2013-04-27 19:38:00,
2013-04-27 15:43:00,75.4,44.1,30.33,SSE,156,5.5,9.4,33,0.00,,,0.00,WUHU21623XXSP,2013-04-27 19:43:00,
2013-04-27 15:48:00,76.0,43.8,30.33,South,179,2.4,9.4,32,0.00,,,0.00,WUHU21623XXSP,2013-04-27 19:48:00,
2013-04-27 15:53:00,76.9,44.6,30.33,SE,135,6.9,7.6,32,0.00,,,0.00,WUHU21623XXSP,2013-04-27 19:53:00,
2013-04-27 15:58:00,77.6,45.2,30.32,SE,132,3.9,8.5,32,0.00,,,0.00,WUHU21623XXSP,2013-04-27 19:58:00,
2013-04-27 16:03:00,77.8,44.6,30.32,SE,140,4.6,8.5,31,0.00,,,0.00,WUHU21623XXSP,2013-04-27 20:03:00,
2013-04-27 16:08:00,77.4,44.2,30.32,SE,136,4.2,6.3,31,0.00,,,0.00,WUHU21623XXSP,2013-04-27 20:08:00,
2013-04-27 16:13:00,76.9,43.8,30.32,SE,135,0.0,8.3,31,0.00,,,0.00,WUHU21623XXSP,2013-04-27 20:13:00,
2013-04-27 16:18:00,76.0,43.0,30.32,SE,145,4.2,8.3,31,0.00,,,0.00,WUHU21623XXSP,2013-04-27 20:18:00,
2013-04-27 16:23:00,75.6,43.5,30.32,South,180,1.8,7.6,32,0.00,,,0.00,WUHU21623XXSP,2013-04-27 20:23:00,
2013-04-27 16:28:00,75.4,43.3,30.31,SSE,154,5.1,9.2,32,0.00,,,0.00,WUHU21623XXSP,2013-04-27 20:28:00,
2013-04-27 16:33:00,75.4,43.3,30.31,ESE,112,0.0,9.2,32,0.00,,,0.00,WUHU21623XXSP,2013-04-27 20:33:00,
2013-04-27 16:38:00,75.4,43.3,30.31,SSE,157,6.9,10.1,32,0.00,,,0.00,WUHU21623XXSP,2013-04-27 20:38:00,
2013-04-27 16:43:00,75.3,42.4,30.30,SE,135,6.0,10.3,31,0.00,,,0.00,WUHU21623XXSP,2013-04-27 20:43:00,
2013-04-27 16:48:00,74.7,41.9,30.30,South,170,5.4,10.3,31,0.00,,,0.00,WUHU21623XXSP,2013-04-27 20:48:00,
2013-04-27 16:53:00,74.0,41.3,30.30,East,90,4.7,8.1,31,0.00,,,0.00,WUHU21623XXSP,2013-04-27 20:53:00,
2013-04-27 16:58:00,73.5,40.8,30.30,ESE,122,4.4,8.3,31,0.00,,,0.00,WUHU21623XXSP,2013-04-27 20:58:00,
2013-04-27 17:03:00,72.9,41.1,30.30,ESE,103,6.4,10.5,32,0.00,,,0.00,WUHU21623XXSP,2013-04-27 21:03:00,
2013-04-27 17:08:00,72.4,39.9,30.30,ESE,112,5.6,10.5,31,0.00,,,0.00,WUHU21623XXSP,2013-04-27 21:08:00,
2013-04-27 17:13:00,72.4,39.9,30.30,ESE,104,4.4,8.1,31,0.00,,,0.00,WUHU21623XXSP,2013-04-27 21:13:00,
2013-04-27 17:18:00,72.7,40.1,30.30,SSE,157,1.4,8.1,31,0.00,,,0.00,WUHU21623XXSP,2013-04-27 21:18:00,
2013-04-27 17:23:00,73.5,40.8,30.30,SE,135,4.7,7.6,31,0.00,,,0.00,WUHU21623XXSP,2013-04-27 21:23:00,
2013-04-27 17:28:00,74.7,41.9,30.30,SSE,157,0.0,5.6,31,0.00,,,0.00,WUHU21623XXSP,2013-04-27 21:28:00,
2013-04-27 17:33:00,75.6,41.8,30.30,ESE,102,3.2,5.4,30,0.00,,,0.00,WUHU21623XXSP,2013-04-27 21:33:00,
2013-04-27 17:38:00,76.5,42.6,30.30,SE,130,2.9,6.5,30,0.00,,,0.00,WUHU21623XXSP,2013-04-27 21:38:00,
2013-04-27 17:43:00,76.9,42.9,30.30,SSE,157,4.0,7.6,30,0.00,,,0.00,WUHU21623XXSP,2013-04-27 21:43:00,
2013-04-27 17:48:00,77.1,43.1,30.30,SE,135,0.0,7.6,30,0.00,,,0.00,WUHU21623XXSP,2013-04-27 21:48:00,
2013-04-27 17:53:00,76.9,42.9,30.30,SSE,152,4.9,8.3,30,0.00,,,0.00,WUHU21623XXSP,2013-04-27 21:53:00,
2013-04-27 17:58:00,76.3,42.4,30.30,SE,146,1.3,8.3,30,0.00,,,0.00,WUHU21623XXSP,2013-04-27 21:58:00,
2013-04-27 18:03:00,75.6,41.8,30.30,SSE,152,3.9,7.4,30,0.00,,,0.00,WUHU21623XXSP,2013-04-27 22:03:00,
2013-04-27 18:08:00,74.5,40.9,30.30,SE,135,0.0,7.4,30,0.00,,,0.00,WUHU21623XXSP,2013-04-27 22:08:00,
2013-04-27 18:13:00,73.6,40.1,30.30,SE,134,4.3,6.5,30,0.00,,,0.00,WUHU21623XXSP,2013-04-27 22:13:00,
2013-04-27 18:18:00,72.7,39.3,30.30,ESE,112,0.0,6.5,30,0.00,,,0.00,WUHU21623XXSP,2013-04-27 22:18:00,
2013-04-27 18:23:00,71.7,39.3,30.30,East,90,0.0,4.0,31,0.00,,,0.00,WUHU21623XXSP,2013-04-27 22:23:00,
2013-04-27 18:28:00,70.8,38.5,30.30,NE,45,0.0,4.0,31,0.00,,,0.00,WUHU21623XXSP,2013-04-27 22:28:00,
2013-04-27 18:33:00,69.9,37.7,30.29,ESE,112,0.0,1.3,31,0.00,,,0.00,WUHU21623XXSP,2013-04-27 22:33:00,
2013-04-27 18:38:00,69.1,37.8,30.30,SSE,157,0.0,0.0,32,0.00,,,0.00,WUHU21623XXSP,2013-04-27 22:38:00,
2013-04-27 18:43:00,68.4,37.2,30.29,SE,135,0.0,0.0,32,0.00,,,0.00,WUHU21623XXSP,2013-04-27 22:43:00,
2013-04-27 18:48:00,67.9,37.5,30.29,SSE,157,0.0,0.0,33,0.00,,,0.00,WUHU21623XXSP,2013-04-27 22:48:00,
2013-04-27 18:53:00,67.3,37.0,30.29,ESE,112,0.0,0.0,33,0.00,,,0.00,WUHU21623XXSP,2013-04-27 22:53:00,
2013-04-27 18:58:00,66.8,37.3,30.29,ESE,112,0.0,0.0,34,0.00,,,0.00,WUHU21623XXSP,2013-04-27 22:58:00,
2013-04-27 19:03:00,66.4,37.0,30.29,ESE,112,0.0,0.0,34,0.00,,,0.00,WUHU21623XXSP,2013-04-27 23:03:00,
2013-04-27 19:08:00,66.1,36.7,30.29,SE,135,0.0,0.0,34,0.00,,,0.00,WUHU21623XXSP,2013-04-27 23:08:00,
2013-04-27 19:13:00,65.5,36.9,30.29,SE,135,0.0,0.0,35,0.00,,,0.00,WUHU21623XXSP,2013-04-27 23:13:00,
2013-04-27 19:18:00,65.0,36.5,30.29,SE,135,0.0,0.0,35,0.00,,,0.00,WUHU21623XXSP,2013-04-27 23:18:00,
2013-04-27 19:23:00,64.6,36.1,30.29,SE,135,0.0,0.0,35,0.00,,,0.00,WUHU21623XXSP,2013-04-27 23:23:00,
2013-04-27 19:28:00,64.3,36.6,30.29,SE,135,0.0,0.0,36,0.00,,,0.00,WUHU21623XXSP,2013-04-27 23:28:00,
2013-04-27 19:33:00,63.9,36.2,30.29,SE,135,0.0,0.0,36,0.00,,,0.00,WUHU21623XXSP,2013-04-27 23:33:00,
2013-04-27 19:38:00,63.4,36.5,30.28,SE,135,0.0,0.0,37,0.00,,,0.00,WUHU21623XXSP,2013-04-27 23:38:00,
2013-04-27 19:43:00,63.0,36.1,30.28,SE,135,0.0,0.0,37,0.00,,,0.00,WUHU21623XXSP,2013-04-27 23:43:00,
2013-04-27 19:48:00,62.7,36.5,30.28,SE,135,0.0,0.0,38,0.00,,,0.00,WUHU21623XXSP,2013-04-27 23:48:00,
2013-04-27 19:53:00,62.1,36.0,30.28,SE,135,0.0,0.0,38,0.00,,,0.00,WUHU21623XXSP,2013-04-27 23:53:00,
2013-04-27 19:58:00,61.6,35.6,30.28,SE,135,0.0,0.0,38,0.00,,,0.00,WUHU21623XXSP,2013-04-27 23:58:00,
2013-04-27 20:03:00,61.2,35.9,30.28,SE,135,0.0,0.0,39,0.00,,,0.00,WUHU21623XXSP,2013-04-28 00:03:00,
2013-04-27 20:08:00,60.9,35.6,30.29,SE,135,0.0,0.0,39,0.00,,,0.00,WUHU21623XXSP,2013-04-28 00:08:00,
2013-04-27 20:13:00,60.3,35.1,30.28,SE,135,0.0,0.0,39,0.00,,,0.00,WUHU21623XXSP,2013-04-28 00:13:00,
2013-04-27 20:18:00,60.1,35.5,30.28,SE,135,0.0,0.0,40,0.00,,,0.00,WUHU21623XXSP,2013-04-28 00:18:00,
2013-04-27 20:23:00,59.6,35.1,30.28,SE,135,0.0,0.0,40,0.00,,,0.00,WUHU21623XXSP,2013-04-28 00:23:00,
2013-04-27 20:28:00,59.2,35.4,30.28,SE,135,0.0,0.0,41,0.00,,,0.00,WUHU21623XXSP,2013-04-28 00:28:00,
2013-04-27 20:33:00,58.9,35.1,30.28,SE,135,0.0,0.0,41,0.00,,,0.00,WUHU21623XXSP,2013-04-28 00:33:00,
2013-04-27 20:38:00,58.5,35.3,30.28,SE,135,0.0,0.0,42,0.00,,,0.00,WUHU21623XXSP,2013-04-28 00:38:00,
2013-04-27 20:43:00,58.2,35.1,30.29,SE,135,0.0,0.0,42,0.00,,,0.00,WUHU21623XXSP,2013-04-28 00:43:00,
2013-04-27 20:48:00,57.8,34.7,30.28,SE,135,0.0,0.0,42,0.00,,,0.00,WUHU21623XXSP,2013-04-28 00:48:00,
2013-04-27 20:53:00,57.4,35.0,30.28,SE,135,0.0,0.0,43,0.00,,,0.00,WUHU21623XXSP,2013-04-28 00:53:00,
2013-04-27 20:58:00,57.1,34.7,30.28,SE,135,0.0,0.0,43,0.00,,,0.00,WUHU21623XXSP,2013-04-28 00:58:00,
2013-04-27 21:03:00,56.7,34.9,30.29,SE,135,0.0,0.0,44,0.00,,,0.00,WUHU21623XXSP,2013-04-28 01:03:00,
2013-04-27 21:08:00,56.7,34.9,30.29,SE,135,0.0,0.0,44,0.00,,,0.00,WUHU21623XXSP,2013-04-28 01:08:00,
2013-04-27 21:13:00,56.5,34.7,30.29,SE,135,0.0,0.0,44,0.00,,,0.00,WUHU21623XXSP,2013-04-28 01:13:00,
2013-04-27 21:18:00,56.2,35.0,30.29,SE,135,0.0,0.0,45,0.00,,,0.00,WUHU21623XXSP,2013-04-28 01:18:00,
2013-04-27 21:23:00,55.8,34.7,30.29,SE,135,0.0,0.0,45,0.00,,,0.00,WUHU21623XXSP,2013-04-28 01:23:00,
2013-04-27 21:28:00,55.5,35.0,30.30,SE,135,0.0,0.0,46,0.00,,,0.00,WUHU21623XXSP,2013-04-28 01:28:00,
2013-04-27 21:33:00,55.3,34.8,30.30,SSE,157,0.0,0.0,46,0.00,,,0.00,WUHU21623XXSP,2013-04-28 01:33:00,
2013-04-27 21:38:00,54.9,35.0,30.30,ESE,112,0.0,1.8,47,0.00,,,0.00,WUHU21623XXSP,2013-04-28 01:38:00,
2013-04-27 21:43:00,54.9,35.0,30.30,ESE,112,0.0,1.8,47,0.00,,,0.00,WUHU21623XXSP,2013-04-28 01:43:00,
2013-04-27 21:48:00,54.9,35.5,30.30,SSE,157,0.0,0.0,48,0.00,,,0.00,WUHU21623XXSP,2013-04-28 01:48:00,
2013-04-27 21:53:00,54.9,35.5,30.30,SE,135,1.6,1.6,48,0.00,,,0.00,WUHU21623XXSP,2013-04-28 01:53:00,
2013-04-27 21:58:00,54.9,36.1,30.30,SSE,157,0.0,2.0,49,0.00,,,0.00,WUHU21623XXSP,2013-04-28 01:58:00,
2013-04-27 22:03:00,54.9,36.6,30.30,South,183,2.0,7.4,50,0.00,,,0.00,WUHU21623XXSP,2013-04-28 02:03:00,
2013-04-27 22:07:00,54.9,36.6,30.30,SSE,157,0.0,7.4,50,0.00,,,0.00,WUHU21623XXSP,2013-04-28 02:07:00,
2013-04-27 22:13:00,54.9,37.1,30.30,SE,135,4.3,4.3,51,0.00,,,0.00,WUHU21623XXSP,2013-04-28 02:13:00,
2013-04-27 22:17:00,54.9,37.1,30.30,SSE,160,4.8,7.4,51,0.00,,,0.00,WUHU21623XXSP,2013-04-28 02:17:00,
2013-04-27 22:22:00,54.9,37.1,30.30,South,180,0.0,7.4,51,0.00,,,0.00,WUHU21623XXSP,2013-04-28 02:22:00,
2013-04-27 22:27:00,55.1,37.8,30.30,SSE,168,5.2,5.4,52,0.00,,,0.00,WUHU21623XXSP,2013-04-28 02:27:00,
2013-04-27 22:33:00,55.3,38.0,30.30,South,172,2.9,6.0,52,0.00,,,0.00,WUHU21623XXSP,2013-04-28 02:33:00,
2013-04-27 22:37:00,55.3,38.5,30.30,SSE,154,5.6,11.0,53,0.00,,,0.00,WUHU21623XXSP,2013-04-28 02:37:00,
2013-04-27 22:43:00,55.3,38.5,30.30,SSW,202,5.4,11.0,53,0.00,,,0.00,WUHU21623XXSP,2013-04-28 02:43:00,
2013-04-27 22:47:00,55.3,38.5,30.30,SSW,202,1.6,5.8,53,0.00,,,0.00,WUHU21623XXSP,2013-04-28 02:47:00,
2013-04-27 22:52:00,55.3,39.0,30.30,SE,135,2.5,5.8,54,0.00,,,0.00,WUHU21623XXSP,2013-04-28 02:52:00,
2013-04-27 22:57:00,55.5,39.2,30.29,SW,225,0.0,5.6,54,0.00,,,0.00,WUHU21623XXSP,2013-04-28 02:57:00,
2013-04-27 23:02:00,55.5,39.7,30.29,SSE,157,0.0,9.6,55,0.00,,,0.00,WUHU21623XXSP,2013-04-28 03:02:00,
2013-04-27 23:07:00,55.3,39.5,30.29,SSE,157,3.1,9.6,55,0.00,,,0.00,WUHU21623XXSP,2013-04-28 03:07:00,
2013-04-27 23:12:00,55.5,40.1,30.29,North,0,0.0,6.7,56,0.00,,,0.00,WUHU21623XXSP,2013-04-28 03:12:00,
2013-04-27 23:17:00,55.5,40.1,30.29,SSE,156,3.2,6.0,56,0.00,,,0.00,WUHU21623XXSP,2013-04-28 03:17:00,
2013-04-27 23:23:00,55.5,40.1,30.29,SE,136,4.0,8.1,56,0.00,,,0.00,WUHU21623XXSP,2013-04-28 03:23:00,
2013-04-27 23:28:00,55.5,40.1,30.29,SE,135,2.7,9.6,56,0.00,,,0.00,WUHU21623XXSP,2013-04-28 03:28:00,
2013-04-27 23:33:00,55.5,40.1,30.28,SE,137,2.9,9.6,56,0.00,,,0.00,WUHU21623XXSP,2013-04-28 03:33:00,
2013-04-27 23:38:00,55.3,40.4,30.29,SE,135,0.0,9.6,57,0.00,,,0.00,WUHU21623XXSP,2013-04-28 03:38:00,
2013-04-27 23:43:00,55.5,40.6,30.28,SSE,157,2.0,9.6,57,0.00,,,0.00,WUHU21623XXSP,2013-04-28 03:43:00,
2013-04-27 23:48:00,55.3,40.4,30.28,SSE,157,0.0,4.9,57,0.00,,,0.00,WUHU21623XXSP,2013-04-28 03:48:00,
2013-04-27 23:53:00,55.3,40.4,30.29,SSE,157,0.0,4.9,57,0.00,,,0.00,WUHU21623XXSP,2013-04-28 03:53:00,
2013-04-27 23:58:00,55.3,40.4,30.29,SSE,157,0.0,0.0,57,0.00,,,0.00,WUHU21623XXSP,2013-04-28 03:58:00,